Time,TemperatureF,DewpointF,PressureIn,WindDirection,WindDirectionDegrees,WindSpeedMPH,WindSpeedGustMPH,Humidity,HourlyPrecipIn,Conditions,Clouds,dailyrainin,SoftwareType,DateUTC
2013-04-04 00:04:00,36.0,21.8,30.20,NNE,22,6.0,9.0,56,0.00,,,-99.99,Weather View 32 v60,2013-04-04 04:04:00,
2013-04-04 00:09:00,37.0,22.3,30.20,NNE,22,4.0,9.0,55,0.00,,,-99.99,Weather View 32 v60,2013-04-04 04:09:00,
2013-04-04 00:19:00,37.0,21.9,30.19,NE,45,7.0,10.0,54,0.00,,,-99.99,Weather View 32 v60,2013-04-04 04:19:00,
2013-04-04 00:34:00,37.0,21.9,30.18,NE,45,6.0,10.0,54,0.00,,,-99.99,Weather View 32 v60,2013-04-04 04:34:00,
2013-04-04 00:39:00,37.0,21.4,30.18,NE,45,7.0,10.0,53,0.00,,,-99.99,Weather View 32 v60,2013-04-04 04:39:00,
2013-04-04 00:44:00,37.0,21.4,30.18,NE,45,6.0,10.0,53,0.00,,,-99.99,Weather View 32 v60,2013-04-04 04:44:00,
2013-04-04 00:54:00,37.0,20.5,30.19,NE,45,4.0,10.0,51,0.00,,,-99.99,Weather View 32 v60,2013-04-04 04:54:00,
2013-04-04 00:59:00,37.0,21.0,30.19,NNE,22,6.0,10.0,52,0.00,,,-99.99,Weather View 32 v60,2013-04-04 04:59:00,
2013-04-04 01:04:00,37.0,21.0,30.18,NNE,22,9.0,10.0,52,0.00,,,-99.99,Weather View 32 v60,2013-04-04 05:04:00,
2013-04-04 01:09:00,37.0,21.4,30.18,NE,45,8.0,10.0,53,0.00,,,-99.99,Weather View 32 v60,2013-04-04 05:09:00,
2013-04-04 01:19:00,37.0,21.4,30.18,NE,45,7.0,10.0,53,0.00,,,-99.99,Weather View 32 v60,2013-04-04 05:19:00,
2013-04-04 01:24:00,37.0,21.0,30.18,NNE,22,5.0,10.0,52,0.00,,,-99.99,Weather View 32 v60,2013-04-04 05:24:00,
2013-04-04 01:34:00,37.0,21.0,30.18,NE,45,6.0,10.0,52,0.00,,,-99.99,Weather View 32 v60,2013-04-04 05:34:00,
2013-04-04 01:44:00,37.0,20.5,30.18,NNE,22,9.0,10.0,51,0.00,,,-99.99,Weather View 32 v60,2013-04-04 05:44:00,
2013-04-04 01:49:00,37.0,20.5,30.18,NE,45,7.0,10.0,51,0.00,,,-99.99,Weather View 32 v60,2013-04-04 05:49:00,
2013-04-04 01:57:00,37.0,21.0,30.17,NE,45,8.0,11.0,52,0.00,,,-99.99,Weather View 32 v60,2013-04-04 05:57:00,
2013-04-04 02:04:00,37.0,21.0,30.17,North,360,6.0,11.0,52,0.00,,,-99.99,Weather View 32 v60,2013-04-04 06:04:00,
2013-04-04 02:09:00,36.0,20.1,30.17,NE,45,10.0,11.0,52,0.00,,,-99.99,Weather View 32 v60,2013-04-04 06:09:00,
2013-04-04 02:19:00,36.0,20.1,30.16,NE,45,9.0,11.0,52,0.00,,,-99.99,Weather View 32 v60,2013-04-04 06:19:00,
2013-04-04 02:24:00,36.0,20.5,30.16,NE,45,6.0,11.0,53,0.00,,,-99.99,Weather View 32 v60,2013-04-04 06:24:00,
2013-04-04 02:34:00,36.0,21.0,30.16,NE,45,10.0,12.0,54,0.00,,,-99.99,Weather View 32 v60,2013-04-04 06:34:00,
2013-04-04 02:39:00,36.0,21.0,30.16,NNE,22,10.0,12.0,54,0.00,,,-99.99,Weather View 32 v60,2013-04-04 06:39:00,
2013-04-04 02:49:00,36.0,21.0,30.16,NE,45,10.0,12.0,54,0.00,,,-99.99,Weather View 32 v60,2013-04-04 06:49:00,
2013-04-04 02:54:00,36.0,21.0,30.16,NE,45,5.0,12.0,54,0.00,,,-99.99,Weather View 32 v60,2013-04-04 06:54:00,
2013-04-04 03:04:00,36.0,21.8,30.14,NE,45,5.0,12.0,56,0.00,,,-99.99,Weather View 32 v60,2013-04-04 07:04:00,
2013-04-04 03:09:00,36.0,21.8,30.14,NE,45,9.0,12.0,56,0.00,,,-99.99,Weather View 32 v60,2013-04-04 07:09:00,
2013-04-04 03:14:00,36.0,21.4,30.14,NE,45,8.0,12.0,55,0.00,,,-99.99,Weather View 32 v60,2013-04-04 07:14:00,
2013-04-04 03:24:00,36.0,21.4,30.13,NE,45,8.0,12.0,55,0.00,,,-99.99,Weather View 32 v60,2013-04-04 07:24:00,
2013-04-04 03:29:00,36.0,21.8,30.13,NNE,22,10.0,12.0,56,0.00,,,-99.99,Weather View 32 v60,2013-04-04 07:29:00,
2013-04-04 03:39:00,36.0,21.0,30.13,NE,45,8.0,12.0,54,0.00,,,-99.99,Weather View 32 v60,2013-04-04 07:39:00,
2013-04-04 03:49:00,35.0,20.9,30.13,NE,45,5.0,12.0,56,0.00,,,-99.99,Weather View 32 v60,2013-04-04 07:49:00,
2013-04-04 03:58:00,35.0,20.9,30.13,NE,45,7.0,12.0,56,0.00,,,-99.99,Weather View 32 v60,2013-04-04 07:58:00,
2013-04-04 04:04:00,35.0,21.7,30.14,NE,45,4.0,12.0,58,0.00,,,-99.99,Weather View 32 v60,2013-04-04 08:04:00,
2013-04-04 04:09:00,35.0,21.7,30.14,NE,45,3.0,12.0,58,0.00,,,-99.99,Weather View 32 v60,2013-04-04 08:09:00,
2013-04-04 04:14:00,35.0,21.3,30.14,NE,45,5.0,12.0,57,0.00,,,-99.99,Weather View 32 v60,2013-04-04 08:14:00,
2013-04-04 04:19:00,35.0,21.7,30.14,NE,45,5.0,12.0,58,0.00,,,-99.99,Weather View 32 v60,2013-04-04 08:19:00,
2013-04-04 04:29:00,34.0,21.2,30.13,NE,45,7.0,12.0,59,0.00,,,-99.99,Weather View 32 v60,2013-04-04 08:29:00,
2013-04-04 04:39:00,34.0,21.2,30.12,NNE,22,7.0,11.0,59,0.00,,,-99.99,Weather View 32 v60,2013-04-04 08:39:00,
2013-04-04 04:49:00,35.0,21.7,30.12,NE,45,9.0,10.0,58,0.00,,,-99.99,Weather View 32 v60,2013-04-04 08:49:00,
2013-04-04 04:54:00,35.0,21.7,30.11,NE,45,8.0,10.0,58,0.00,,,-99.99,Weather View 32 v60,2013-04-04 08:54:00,
2013-04-04 04:59:00,35.0,21.7,30.11,NE,45,7.0,10.0,58,0.00,,,-99.99,Weather View 32 v60,2013-04-04 08:59:00,
2013-04-04 05:14:00,35.0,21.7,30.11,NE,45,8.0,11.0,58,0.00,,,-99.99,Weather View 32 v60,2013-04-04 09:14:00,
2013-04-04 05:24:00,35.0,21.7,30.10,NE,45,7.0,11.0,58,0.00,,,-99.99,Weather View 32 v60,2013-04-04 09:24:00,
2013-04-04 05:29:00,35.0,22.1,30.10,NNE,22,8.0,11.0,59,0.00,,,-99.99,Weather View 32 v60,2013-04-04 09:29:00,
2013-04-04 05:39:00,35.0,22.1,30.10,NNE,22,6.0,11.0,59,0.00,,,-99.99,Weather View 32 v60,2013-04-04 09:39:00,
2013-04-04 05:54:00,35.0,21.7,30.10,NNE,22,5.0,12.0,58,0.00,,,-99.99,Weather View 32 v60,2013-04-04 09:54:00,
2013-04-04 06:04:00,35.0,21.7,30.09,NE,45,8.0,12.0,58,0.00,,,-99.99,Weather View 32 v60,2013-04-04 10:04:00,
2013-04-04 06:09:00,35.0,21.7,30.09,NE,45,6.0,12.0,58,0.00,,,-99.99,Weather View 32 v60,2013-04-04 10:09:00,
2013-04-04 06:24:00,34.0,21.2,30.09,NE,45,6.0,12.0,59,0.00,,,-99.99,Weather View 32 v60,2013-04-04 10:24:00,
2013-04-04 06:34:00,34.0,21.6,30.09,NE,45,6.0,12.0,60,0.00,,,-99.99,Weather View 32 v60,2013-04-04 10:34:00,
2013-04-04 06:44:00,34.0,21.6,30.09,NE,45,7.0,12.0,60,0.00,,,-99.99,Weather View 32 v60,2013-04-04 10:44:00,
2013-04-04 06:49:00,34.0,21.6,30.09,NNE,22,5.0,11.0,60,0.00,,,-99.99,Weather View 32 v60,2013-04-04 10:49:00,
2013-04-04 06:59:00,34.0,21.6,30.09,NE,45,7.0,10.0,60,0.00,,,-99.99,Weather View 32 v60,2013-04-04 10:59:00,
2013-04-04 07:09:00,34.0,22.0,30.10,NE,45,5.0,10.0,61,0.00,,,-99.99,Weather View 32 v60,2013-04-04 11:09:00,
2013-04-04 07:19:00,34.0,21.6,30.10,NE,45,7.0,10.0,60,0.00,,,-99.99,Weather View 32 v60,2013-04-04 11:19:00,
2013-04-04 07:29:00,34.0,22.0,30.10,NE,45,7.0,11.0,61,0.00,,,-99.99,Weather View 32 v60,2013-04-04 11:29:00,
2013-04-04 07:34:00,34.0,22.0,30.09,NE,45,7.0,11.0,61,0.00,,,-99.99,Weather View 32 v60,2013-04-04 11:34:00,
2013-04-04 07:39:00,34.0,22.3,30.09,NE,45,7.0,11.0,62,0.00,,,-99.99,Weather View 32 v60,2013-04-04 11:39:00,
2013-04-04 07:44:00,34.0,22.0,30.10,NE,45,6.0,11.0,61,0.00,,,-99.99,Weather View 32 v60,2013-04-04 11:44:00,
2013-04-04 07:59:00,34.0,22.3,30.09,NE,45,5.0,11.0,62,0.00,,,-99.99,Weather View 32 v60,2013-04-04 11:59:00,
2013-04-04 08:04:00,34.0,22.0,30.09,NE,45,6.0,11.0,61,0.00,,,-99.99,Weather View 32 v60,2013-04-04 12:04:00,
2013-04-04 08:09:00,34.0,22.0,30.09,ENE,67,6.0,11.0,61,0.00,,,-99.99,Weather View 32 v60,2013-04-04 12:09:00,
2013-04-04 08:19:00,35.0,22.5,30.10,NE,45,10.0,11.0,60,0.00,,,-99.99,Weather View 32 v60,2013-04-04 12:19:00,
2013-04-04 08:29:00,35.0,21.7,30.09,NE,45,6.0,12.0,58,0.00,,,-99.99,Weather View 32 v60,2013-04-04 12:29:00,
2013-04-04 08:34:00,36.0,23.0,30.08,ENE,67,10.0,12.0,59,0.00,,,-99.99,Weather View 32 v60,2013-04-04 12:34:00,
2013-04-04 08:44:00,36.0,22.2,30.09,NE,45,5.0,14.0,57,0.00,,,-99.99,Weather View 32 v60,2013-04-04 12:44:00,
2013-04-04 08:54:00,36.0,22.6,30.09,ENE,67,6.0,14.0,58,0.00,,,-99.99,Weather View 32 v60,2013-04-04 12:54:00,
2013-04-04 08:59:00,36.0,22.2,30.09,NE,45,9.0,14.0,57,0.00,,,-99.99,Weather View 32 v60,2013-04-04 12:59:00,
2013-04-04 09:09:00,37.0,22.7,30.08,NE,45,11.0,14.0,56,0.00,,,-99.99,Weather View 32 v60,2013-04-04 13:09:00,
2013-04-04 09:14:00,37.0,22.7,30.08,NE,45,7.0,14.0,56,0.00,,,-99.99,Weather View 32 v60,2013-04-04 13:14:00,
2013-04-04 09:24:00,37.0,22.3,30.07,NE,45,9.0,14.0,55,0.00,,,-99.99,Weather View 32 v60,2013-04-04 13:24:00,
2013-04-04 09:34:00,38.0,23.2,30.06,NE,45,7.0,14.0,55,0.00,,,-99.99,Weather View 32 v60,2013-04-04 13:34:00,
2013-04-04 09:39:00,39.0,23.7,30.06,ENE,67,6.0,13.0,54,0.00,,,-99.99,Weather View 32 v60,2013-04-04 13:39:00,
2013-04-04 09:44:00,39.0,22.8,30.05,ENE,67,11.0,17.0,52,0.00,,,-99.99,Weather View 32 v60,2013-04-04 13:44:00,
2013-04-04 09:49:00,39.0,23.3,30.05,NE,45,6.0,17.0,53,0.00,,,-99.99,Weather View 32 v60,2013-04-04 13:49:00,
2013-04-04 09:54:00,40.0,22.4,30.04,ENE,67,8.0,17.0,49,0.00,,,-99.99,Weather View 32 v60,2013-04-04 13:54:00,
2013-04-04 10:01:00,40.0,23.3,30.04,NE,45,9.0,17.0,51,0.00,,,-99.99,Weather View 32 v60,2013-04-04 14:01:00,
2013-04-04 10:09:00,41.0,22.3,30.03,East,90,8.0,17.0,47,0.00,,,-99.99,Weather View 32 v60,2013-04-04 14:09:00,
2013-04-04 10:24:00,41.0,21.8,30.02,NE,45,9.0,17.0,46,0.00,,,-99.99,Weather View 32 v60,2013-04-04 14:24:00,
2013-04-04 10:29:00,41.0,23.3,30.02,NE,45,9.0,17.0,49,0.00,,,-99.99,Weather View 32 v60,2013-04-04 14:29:00,
2013-04-04 10:34:00,42.0,22.7,30.02,NE,45,5.0,17.0,46,0.00,,,-99.99,Weather View 32 v60,2013-04-04 14:34:00,
2013-04-04 10:39:00,42.0,22.7,30.02,NE,45,8.0,17.0,46,0.00,,,-99.99,Weather View 32 v60,2013-04-04 14:39:00,
2013-04-04 10:49:00,43.0,23.6,30.01,NNE,22,8.0,12.0,46,0.00,,,-99.99,Weather View 32 v60,2013-04-04 14:49:00,
2013-04-04 10:54:00,43.0,23.6,30.02,NE,45,7.0,12.0,46,0.00,,,-99.99,Weather View 32 v60,2013-04-04 14:54:00,
2013-04-04 11:02:00,44.0,24.0,30.02,NE,45,5.0,12.0,45,0.00,,,-99.99,Weather View 32 v60,2013-04-04 15:02:00,
2013-04-04 11:09:00,45.0,24.9,30.01,NE,45,7.0,12.0,45,0.00,,,-99.99,Weather View 32 v60,2013-04-04 15:09:00,
2013-04-04 11:19:00,44.0,24.0,30.01,NE,45,7.0,12.0,45,0.00,,,-99.99,Weather View 32 v60,2013-04-04 15:19:00,
2013-04-04 11:24:00,44.0,25.5,30.01,East,90,2.0,10.0,48,0.00,,,-99.99,Weather View 32 v60,2013-04-04 15:24:00,
2013-04-04 11:29:00,44.0,24.0,30.01,East,90,3.0,10.0,45,0.00,,,-99.99,Weather View 32 v60,2013-04-04 15:29:00,
2013-04-04 11:44:00,45.0,26.0,30.02,ENE,67,4.0,10.0,47,0.00,,,-99.99,Weather View 32 v60,2013-04-04 15:44:00,
2013-04-04 11:54:00,45.0,26.0,30.02,NE,45,5.0,10.0,47,0.00,,,-99.99,Weather View 32 v60,2013-04-04 15:54:00,
2013-04-04 11:59:00,45.0,24.9,30.02,ENE,67,5.0,10.0,45,0.00,,,-99.99,Weather View 32 v60,2013-04-04 15:59:00,
2013-04-04 12:09:00,46.0,25.8,30.02,NE,45,6.0,9.0,45,0.00,,,-99.99,Weather View 32 v60,2013-04-04 16:09:00,
2013-04-04 12:19:00,46.0,27.4,30.01,NE,45,5.0,8.0,48,0.00,,,-99.99,Weather View 32 v60,2013-04-04 16:19:00,
2013-04-04 12:29:00,47.0,26.7,30.01,ENE,67,5.0,7.0,45,0.00,,,-99.99,Weather View 32 v60,2013-04-04 16:29:00,
2013-04-04 12:39:00,46.0,26.9,30.00,NE,45,8.0,8.0,47,0.00,,,-99.99,Weather View 32 v60,2013-04-04 16:39:00,
2013-04-04 12:49:00,47.0,26.7,30.00,NE,45,2.0,8.0,45,0.00,,,-99.99,Weather View 32 v60,2013-04-04 16:49:00,
2013-04-04 13:04:00,47.0,25.6,29.99,ENE,67,4.0,8.0,43,0.00,,,-99.99,Weather View 32 v60,2013-04-04 17:04:00,
2013-04-04 13:09:00,47.0,26.2,29.99,East,90,0.0,8.0,44,0.00,,,-99.99,Weather View 32 v60,2013-04-04 17:09:00,
2013-04-04 13:19:00,47.0,26.7,29.98,East,90,3.0,8.0,45,0.00,,,-99.99,Weather View 32 v60,2013-04-04 17:19:00,
2013-04-04 13:39:00,48.0,27.6,29.98,SE,135,0.0,8.0,45,0.00,,,-99.99,Weather View 32 v60,2013-04-04 17:39:00,
2013-04-04 13:44:00,48.0,27.1,29.98,ESE,112,3.0,6.0,44,0.00,,,-99.99,Weather View 32 v60,2013-04-04 17:44:00,
2013-04-04 13:59:00,49.0,27.4,29.96,SE,135,0.0,5.0,43,0.00,,,-99.99,Weather View 32 v60,2013-04-04 17:59:00,
2013-04-04 14:09:00,49.0,26.3,29.96,South,180,6.0,6.0,41,0.00,,,-99.99,Weather View 32 v60,2013-04-04 18:09:00,
2013-04-04 14:29:00,49.0,25.7,29.96,SSE,157,6.0,6.0,40,0.00,,,-99.99,Weather View 32 v60,2013-04-04 18:29:00,
2013-04-04 14:39:00,49.0,26.3,29.95,East,90,1.0,6.0,41,0.00,,,-99.99,Weather View 32 v60,2013-04-04 18:39:00,
2013-04-04 14:49:00,50.0,28.9,29.95,SSE,157,5.0,6.0,44,0.00,,,-99.99,Weather View 32 v60,2013-04-04 18:49:00,
2013-04-04 14:54:00,50.0,28.3,29.94,South,180,6.0,6.0,43,0.00,,,-99.99,Weather View 32 v60,2013-04-04 18:54:00,
2013-04-04 15:04:00,50.0,28.3,29.94,SSW,202,4.0,7.0,43,0.00,,,-99.99,Weather View 32 v60,2013-04-04 19:04:00,
2013-04-04 15:24:00,49.0,29.1,29.94,ESE,112,0.0,7.0,46,0.00,,,-99.99,Weather View 32 v60,2013-04-04 19:24:00,
2013-04-04 15:29:00,49.0,27.4,29.94,SSE,157,4.0,7.0,43,0.00,,,-99.99,Weather View 32 v60,2013-04-04 19:29:00,
2013-04-04 15:39:00,49.0,28.5,29.93,SSE,157,4.0,7.0,45,0.00,,,-99.99,Weather View 32 v60,2013-04-04 19:39:00,
2013-04-04 15:49:00,49.0,28.5,29.93,South,180,0.0,7.0,45,0.00,,,-99.99,Weather View 32 v60,2013-04-04 19:49:00,
2013-04-04 15:54:00,49.0,28.5,29.93,South,180,4.0,7.0,45,0.00,,,-99.99,Weather View 32 v60,2013-04-04 19:54:00,
2013-04-04 16:04:00,50.0,29.5,29.94,South,180,5.0,6.0,45,0.00,,,-99.99,Weather View 32 v60,2013-04-04 20:04:00,
2013-04-04 16:14:00,50.0,28.3,29.93,SSW,202,3.0,6.0,43,0.00,,,-99.99,Weather View 32 v60,2013-04-04 20:14:00,
2013-04-04 16:24:00,51.0,29.8,29.92,South,180,3.0,6.0,44,0.00,,,-99.99,Weather View 32 v60,2013-04-04 20:24:00,
2013-04-04 16:29:00,51.0,29.2,29.92,SSW,202,0.0,6.0,43,0.00,,,-99.99,Weather View 32 v60,2013-04-04 20:29:00,
2013-04-04 16:39:00,50.0,28.3,29.92,SW,225,0.0,6.0,43,0.00,,,-99.99,Weather View 32 v60,2013-04-04 20:39:00,
2013-04-04 16:49:00,50.0,29.5,29.92,SW,225,0.0,6.0,45,0.00,,,-99.99,Weather View 32 v60,2013-04-04 20:49:00,
2013-04-04 17:04:00,51.0,29.8,29.92,SW,225,0.0,5.0,44,0.00,,,-99.99,Weather View 32 v60,2013-04-04 21:04:00,
2013-04-04 17:09:00,51.0,30.4,29.92,ESE,112,0.0,4.0,45,0.00,,,-99.99,Weather View 32 v60,2013-04-04 21:09:00,
2013-04-04 17:19:00,52.0,31.8,29.92,WSW,247,0.0,4.0,46,0.00,,,-99.99,Weather View 32 v60,2013-04-04 21:19:00,
2013-04-04 17:24:00,52.0,31.8,29.91,SW,225,0.0,4.0,46,0.00,,,-99.99,Weather View 32 v60,2013-04-04 21:24:00,
2013-04-04 17:34:00,52.0,31.8,29.91,WSW,247,0.0,4.0,46,0.00,,,-99.99,Weather View 32 v60,2013-04-04 21:34:00,
2013-04-04 17:39:00,52.0,31.8,29.91,SSW,202,0.0,4.0,46,0.00,,,-99.99,Weather View 32 v60,2013-04-04 21:39:00,
2013-04-04 17:44:00,52.0,31.8,29.91,SSW,202,0.0,4.0,46,0.00,,,-99.99,Weather View 32 v60,2013-04-04 21:44:00,
2013-04-04 17:54:00,53.0,33.8,29.91,SW,225,0.0,4.0,48,0.00,,,-99.99,Weather View 32 v60,2013-04-04 21:54:00,
2013-04-04 18:04:00,52.0,31.8,29.90,West,270,0.0,4.0,46,0.00,,,-99.99,Weather View 32 v60,2013-04-04 22:04:00,
2013-04-04 18:09:00,52.0,32.9,29.90,NE,45,0.0,4.0,48,0.00,,,-99.99,Weather View 32 v60,2013-04-04 22:09:00,
2013-04-04 18:14:00,51.0,31.4,29.90,North,360,0.0,4.0,47,0.00,,,-99.99,Weather View 32 v60,2013-04-04 22:14:00,
2013-04-04 18:19:00,51.0,31.4,29.90,North,360,0.0,4.0,47,0.00,,,-99.99,Weather View 32 v60,2013-04-04 22:19:00,
2013-04-04 18:39:00,51.0,32.0,29.90,East,90,0.0,0.0,48,0.00,,,-99.99,Weather View 32 v60,2013-04-04 22:39:00,
2013-04-04 18:49:00,51.0,33.0,29.90,NNE,22,0.0,0.0,50,0.00,,,-99.99,Weather View 32 v60,2013-04-04 22:49:00,
2013-04-04 18:54:00,51.0,33.0,29.90,NNE,22,1.0,3.0,50,0.00,,,-99.99,Weather View 32 v60,2013-04-04 22:54:00,
2013-04-04 19:04:00,50.0,32.1,29.91,NE,45,0.0,3.0,50,0.00,,,-99.99,Weather View 32 v60,2013-04-04 23:04:00,
2013-04-04 19:09:00,50.0,32.6,29.91,NE,45,0.0,3.0,51,0.00,,,-99.99,Weather View 32 v60,2013-04-04 23:09:00,
2013-04-04 19:19:00,50.0,33.0,29.91,NE,45,0.0,3.0,52,0.00,,,-99.99,Weather View 32 v60,2013-04-04 23:19:00,
2013-04-04 19:24:00,50.0,33.0,29.91,NE,45,0.0,3.0,52,0.00,,,-99.99,Weather View 32 v60,2013-04-04 23:24:00,
2013-04-04 19:29:00,50.0,33.0,29.91,NE,45,0.0,3.0,52,0.00,,,-99.99,Weather View 32 v60,2013-04-04 23:29:00,
2013-04-04 19:34:00,49.0,32.1,29.91,NE,45,0.0,3.0,52,0.00,,,-99.99,Weather View 32 v60,2013-04-04 23:34:00,
2013-04-04 19:44:00,49.0,32.6,29.92,NE,45,0.0,3.0,53,0.00,,,-99.99,Weather View 32 v60,2013-04-04 23:44:00,
2013-04-04 19:49:00,49.0,32.6,29.92,NE,45,0.0,3.0,53,0.00,,,-99.99,Weather View 32 v60,2013-04-04 23:49:00,
2013-04-04 19:59:00,48.0,32.6,29.91,NE,45,0.0,0.0,55,0.00,,,-99.99,Weather View 32 v60,2013-04-04 23:59:00,
2013-04-04 20:04:00,48.0,32.6,29.91,NE,45,0.0,0.0,55,0.00,,,-99.99,Weather View 32 v60,2013-04-05 00:04:00,
2013-04-04 20:14:00,47.0,31.6,29.90,NE,45,0.0,0.0,55,0.00,,,-99.99,Weather View 32 v60,2013-04-05 00:14:00,
2013-04-04 20:19:00,47.0,32.5,29.90,NE,45,0.0,0.0,57,0.00,,,-99.99,Weather View 32 v60,2013-04-05 00:19:00,
2013-04-04 20:29:00,47.0,32.5,29.91,NE,45,0.0,0.0,57,0.00,,,-99.99,Weather View 32 v60,2013-04-05 00:29:00,
2013-04-04 20:44:00,47.0,32.5,29.90,NE,45,0.0,0.0,57,0.00,,,-99.99,Weather View 32 v60,2013-04-05 00:44:00,
2013-04-04 20:49:00,47.0,32.5,29.90,NE,45,0.0,0.0,57,0.00,,,-99.99,Weather View 32 v60,2013-04-05 00:49:00,
2013-04-04 20:59:00,46.0,31.6,29.90,NE,45,0.0,0.0,57,0.00,,,-99.99,Weather View 32 v60,2013-04-05 00:59:00,
2013-04-04 21:08:00,46.0,32.0,29.91,NE,45,0.0,0.0,58,0.00,,,-99.99,Weather View 32 v60,2013-04-05 01:08:00,
2013-04-04 21:19:00,45.0,31.1,29.91,NE,45,0.0,0.0,58,0.00,,,-99.99,Weather View 32 v60,2013-04-05 01:19:00,
2013-04-04 21:24:00,45.0,31.1,29.91,NE,45,0.0,0.0,58,0.00,,,-99.99,Weather View 32 v60,2013-04-05 01:24:00,
2013-04-04 21:29:00,45.0,31.5,29.91,NE,45,0.0,0.0,59,0.00,,,-99.99,Weather View 32 v60,2013-04-05 01:29:00,
2013-04-04 21:39:00,45.0,31.9,29.91,NE,45,0.0,0.0,60,0.00,,,-99.99,Weather View 32 v60,2013-04-05 01:39:00,
2013-04-04 21:44:00,45.0,31.9,29.91,NE,45,0.0,0.0,60,0.00,,,-99.99,Weather View 32 v60,2013-04-05 01:44:00,
2013-04-04 21:49:00,45.0,31.9,29.91,NE,45,0.0,0.0,60,0.00,,,-99.99,Weather View 32 v60,2013-04-05 01:49:00,
2013-04-04 21:59:00,45.0,31.9,29.91,NE,45,0.0,0.0,60,0.00,,,-99.99,Weather View 32 v60,2013-04-05 01:59:00,
2013-04-04 22:08:00,45.0,31.9,29.92,NE,45,0.0,0.0,60,0.00,,,-99.99,Weather View 32 v60,2013-04-05 02:08:00,
2013-04-04 22:14:00,44.0,31.0,29.92,NE,45,0.0,0.0,60,0.00,,,-99.99,Weather View 32 v60,2013-04-05 02:14:00,
2013-04-04 22:24:00,45.0,31.9,29.92,NE,45,0.0,0.0,60,0.00,,,-99.99,Weather View 32 v60,2013-04-05 02:24:00,
2013-04-04 22:29:00,45.0,31.5,29.92,NE,45,0.0,0.0,59,0.00,,,-99.99,Weather View 32 v60,2013-04-05 02:29:00,
2013-04-04 22:39:00,44.0,33.4,29.92,East,90,0.0,3.0,66,0.00,,,-99.99,Weather View 32 v60,2013-04-05 02:39:00,
2013-04-04 22:49:00,44.0,33.4,29.92,East,90,0.0,3.0,66,0.00,,,-99.99,Weather View 32 v60,2013-04-05 02:49:00,
2013-04-04 22:59:00,43.0,32.4,29.92,East,90,0.0,3.0,66,0.00,,,-99.99,Weather View 32 v60,2013-04-05 02:59:00,
2013-04-04 23:09:00,42.0,32.2,29.92,East,90,0.0,3.0,68,0.00,,,-99.99,Weather View 32 v60,2013-04-05 03:09:00,
2013-04-04 23:19:00,42.0,32.9,29.91,NW,315,0.0,3.0,70,0.00,,,-99.99,Weather View 32 v60,2013-04-05 03:19:00,
2013-04-04 23:29:00,42.0,32.9,29.92,NW,315,0.0,3.0,70,0.00,,,-99.99,Weather View 32 v60,2013-04-05 03:29:00,
2013-04-04 23:44:00,43.0,33.5,29.92,NW,315,0.0,0.0,69,0.00,,,-99.99,Weather View 32 v60,2013-04-05 03:44:00,
2013-04-04 23:49:00,43.0,33.5,29.92,NW,315,0.0,0.0,69,0.00,,,-99.99,Weather View 32 v60,2013-04-05 03:49:00,
2013-04-04 23:54:00,43.0,32.8,29.92,NW,315,0.0,0.0,67,0.00,,,-99.99,Weather View 32 v60,2013-04-05 03:54:00,